Regional Weather Roundup
Issued by NWS Raleigh/Durham, NC

Home | Current Version | Previous Version | Text Only | Print | Product List | Glossary On
Versions: 1 2 3 4 5 6 7 8 9 10 11 12 13 14 15 16 17 18 19 20 21 22 23 24 25 26 27 28 29 30 31 32 33 34 35 36 37 38 39 40 41 42 43 44 45 46 47 48 49 50
000
ASUS42 KRAH 110510
RWRRAH
NORTH CAROLINA WEATHER ROUNDUP
NATIONAL WEATHER SERVICE RALEIGH NC
100 AM EDT FRI JUL 11 2014

NOTE: "FAIR" INDICATES FEW OR NO CLOUDS BELOW 12,000 FEET WITH NO
SIGNIFICANT WEATHER AND/OR OBSTRUCTIONS TO VISIBILITY.

NCZ001-053-055-056-065-067-110600-
WESTERN NORTH CAROLINA

CITY           SKY/WX    TMP DP  RH WIND       PRES   REMARKS
ASHEVILLE      PTCLDY    67  65  93 NE3       30.21S
JEFFERSON      FOG       61  59  94 CALM      30.25S VSB<1/4
MORGANTON      CLOUDY    67  67 100 CALM      30.21R FOG
HICKORY        MOCLDY    69  67  93 CALM      30.16R
RUTHERFORDTON  CLEAR     68  67  98 CALM      30.16R
MOUNT AIRY     MOCLDY    69  66  90 CALM      30.15S
BOONE          MOCLDY    60  60 100 CALM      30.26S FOG
$$

NCZ021-022-025-041-071-084-088-110600-
CENTRAL NORTH CAROLINA

CITY           SKY/WX    TMP DP  RH WIND       PRES   REMARKS
CHARLOTTE      PTCLDY    73  67  81 SE7       30.14R
GREENSBORO     MOCLDY    71  69  93 SW3       30.13S
WINSTON-SALEM  CLOUDY    73  69  87 SW3       30.15S
RALEIGH-DURHAM CLOUDY    72  69  90 CALM      30.13R
FORT BRAGG     CLOUDY    72  70  96 S6        30.10S
FAYETTEVILLE   CLOUDY    72  70  93 S6        30.10F
BURLINGTON     CLOUDY    71  68  90 CALM      30.13R
LAURINBURG     CLOUDY    72  70  93 S5        30.12S
$$

NCZ011-015-027-028-043-044-047-080-103-110600-
NORTHEASTERN NORTH CAROLINA

CITY           SKY/WX    TMP DP  RH WIND       PRES   REMARKS
ROCKY MT-WILSO MOCLDY    72  70  93 S3        30.12R
GREENVILLE     MOCLDY    72  70  94 CALM      30.13R
WASHINGTON     CLOUDY   N/A N/A N/A S7        30.11S
ELIZABETH CITY CLOUDY    72  71  97 NW5       30.13R
MANTEO         NOT AVBL
CAPE HATTERAS  LGT RAIN  74  72  93 W10       30.15R FOG
$$

NCZ078-087-090-091-093-098-101-110600-
SOUTHEASTERN NORTH CAROLINA

CITY           SKY/WX    TMP DP  RH WIND       PRES   REMARKS
LUMBERTON      LGT RAIN  71  70  96 CALM      30.11F
GOLDSBORO      CLOUDY    72  71  99 NW3       30.10R
KINSTON        CLOUDY    72  71  97 S3        30.11F
KENANSVILLE    CLOUDY    71  69  95 CALM      30.12S FOG
NEW BERN       LGT RAIN  74  71  91 SE7       30.12F
CHERRY POINT   CLOUDY    72  70  93 CALM      30.12F
BEAUFORT       CLOUDY    74  71  91 CALM      30.12F
JACKSONVILLE   CLOUDY    72  72 100 SE5       30.10F THUNDER
WILMINGTON     LGT RAIN  74  72  93 CALM      30.12S
$$




USA.gov is the U.S. government's official web portal to all federal, state and local government web resources and services.